Weather History for Aberdeen, SD

Change the Weather History Date:

Thursday, March 28, 2013

  Actual Average Record
Temperature  
Mean Temperature 31 °F 36 °F  
Max Temperature 41 °F 46 °F 82 °F (1946)
Min Temperature 20 °F 25 °F -10 °F (1913)
Degree Days  
Heating Degree Days 34 30  
Month to date heating degree days 1298 1002  
Since 1 July heating degree days 7712 7465  
Cooling Degree Days 0 0  
Month to date cooling degree days 0 0  
Year to date cooling degree days 0 0  
Moisture  
Dew Point 26 °F    
Average Humidity 81    
Maximum Humidity 92    
Minimum Humidity 70    
Precipitation  
Precipitation 0.00 in 0.04 in 1.80 in (1900)
Month to date precipitation 0.24 1.01  
Year to date precipitation 2.08 2.03  
Snow  
Snow 0.00 in - - ()
Month to date snowfall 1.9  
Since 1 July snowfall 41.0  
Snow Depth 4.00 in    
Sea Level Pressure  
Sea Level Pressure 30.22 in    
Wind  
Wind Speed 4 mph (East)    
Max Wind Speed 9 mph    
Max Gust Speed 12 mph    
Visibility 6 miles    
Events      
T = Trace of Precipitation, MM = Missing Value Source: NWS Daily Summary

Daily Weather History Graph

Daily Weather History Graph

Search for Another Location

Airport:

Trip Planner

Search our weather history database for the weather conditions in past years. The results will help you decide how hot, cold, wet, or windy it might be!

Date:

Astronomy

Mar. 28, 2013 Rise Set
Actual Time 7:20 AM CDT 7:56 PM CDT
Civil Twilight 6:51 AM CDT 8:26 PM CDT
Nautical Twilight 6:16 AM CDT 9:02 PM CDT
Astronomical Twilight 5:39 AM CDT 9:38 PM CDT
Moon 9:58 PM CDT (3/28) 7:44 AM CDT (3/28)
Length of Visible Light 13h 35m
Length of Day
12h 36m
Full, 98% of the Moon is Illuminated
Mar 28
Full
Apr 2
Last Quarter
Apr 10
New
Apr 18
First Quarter
Apr 25
Full

Hourly Weather History & Observations

Time (CDT) Temp. Windchill Dew Point Humidity Pressure Visibility Wind Dir Wind Speed Gust Speed Precip Events Conditions
12:53 AM 30.0 °F 23.2 °F 25.0 °F 82% 30.24 in 10.0 mi South 6.9 mph - N/A   Clear
1:53 AM 27.0 °F 21.6 °F 24.1 °F 89% 30.24 in 10.0 mi South 4.6 mph - N/A   Clear
2:53 AM 26.1 °F 20.5 °F 21.9 °F 84% 30.23 in 9.0 mi SE 4.6 mph - N/A   Clear
3:53 AM 26.1 °F 21.9 °F 21.9 °F 84% 30.22 in 8.0 mi SE 3.5 mph - N/A   Clear
4:53 AM 25.0 °F 20.7 °F 21.0 °F 85% 30.22 in 5.0 mi South 3.5 mph - N/A   Clear
5:53 AM 21.9 °F - 19.0 °F 89% 30.23 in 4.0 mi Calm Calm - N/A   Clear
6:53 AM 21.0 °F 16.2 °F 18.0 °F 88% 30.22 in 5.0 mi East 3.5 mph - N/A   Mostly Cloudy
7:53 AM 21.9 °F - 18.0 °F 85% 30.24 in 4.0 mi Calm Calm - N/A   Mostly Cloudy
8:11 AM 24.8 °F - 21.2 °F 86% 30.18 in 2.0 mi Calm Calm - N/A   Overcast
8:33 AM 26.6 °F - 24.8 °F 93% 30.19 in 3.0 mi Calm Calm - N/A   Overcast
8:53 AM 27.0 °F - 25.0 °F 92% 30.24 in 3.0 mi Calm Calm - N/A   Overcast
9:53 AM 28.9 °F - 26.1 °F 89% 30.24 in 4.0 mi Calm Calm - N/A   Mostly Cloudy
10:53 AM 32.0 °F - 27.0 °F 82% 30.24 in 7.0 mi Calm Calm - N/A   Partly Cloudy
11:53 AM 35.1 °F 31.0 °F 28.9 °F 78% 30.25 in 7.0 mi South 4.6 mph - N/A   Scattered Clouds
12:53 PM 36.0 °F - 30.0 °F 79% 30.23 in 8.0 mi Calm Calm - N/A   Clear
1:53 PM 39.9 °F - 30.0 °F 68% 30.23 in 8.0 mi Calm Calm - N/A   Partly Cloudy
2:53 PM 37.9 °F 32.1 °F 30.0 °F 73% 30.22 in 8.0 mi East 8.1 mph - N/A   Scattered Clouds
3:53 PM 37.9 °F 31.5 °F 30.9 °F 76% 30.22 in 7.0 mi ENE 9.2 mph - N/A   Clear
4:53 PM 39.0 °F 34.0 °F 32.0 °F 76% 30.21 in 7.0 mi ENE 6.9 mph - N/A   Mostly Cloudy
5:53 PM 39.0 °F 34.8 °F 32.0 °F 76% 30.21 in 7.0 mi East 5.8 mph - N/A   Scattered Clouds
6:53 PM 37.9 °F 33.5 °F 32.0 °F 79% 30.22 in 7.0 mi ENE 5.8 mph - N/A   Overcast
7:53 PM 34.0 °F 28.0 °F 30.0 °F 85% 30.22 in 5.0 mi NE 6.9 mph - N/A   Scattered Clouds
8:53 PM 34.0 °F 27.2 °F 30.0 °F 85% 30.22 in 5.0 mi NNE 8.1 mph - N/A   Overcast
9:53 PM 33.1 °F 26.9 °F 28.9 °F 85% 30.23 in 5.0 mi ENE 6.9 mph - N/A   Overcast
10:53 PM 32.0 °F 26.4 °F 28.9 °F 88% 30.23 in 4.0 mi NNE 5.8 mph - N/A   Mostly Cloudy
11:53 PM 32.0 °F 26.4 °F 28.0 °F 85% 30.22 in 4.0 mi NNE 5.8 mph - N/A   Scattered Clouds